Location: Canet
(43.3261°N, 5.3723°E)
Time: 13:50:02
(UTC+00:00)

Daily predictions for brighter satellites

Satellite Brightness Start Highest point End
(mag) Time Altitude Azimuth Time Altitude Azimuth Time Altitude Azimuth
Cosmos 1943 3.8 18:27:18 10° SSE 18:32:20 35° ESE 18:37:26 10° NE
ARGOS Delta rocket 4.3 18:29:15 10° SSE 18:34:21 54° ENE 18:39:39 10° N
CSL-04 Rocket 3.9 18:30:17 10° S 18:35:34 76° WSW 18:40:52 10° NNW
STARLINK-1073 3.8 18:32:23 10° WNW 18:36:31 73° SW 18:40:38 10° SE
BREEZE-M DEB (TANK) 2.7 18:29:02 10° WSW 18:37:18 86° SSE 18:40:09 10° ENE
Aureole 2 Rocket 2.7 18:34:18 10° N 18:37:43 48° ENE 18:41:00 10° SE
CZ-2C R/B 3.5 18:33:25 10° SE 18:37:53 37° ENE 18:42:16 10° N
Meteor 2-15 4.4 18:32:13 10° S 18:38:13 71° E 18:44:15 10° NNE
STARLINK-1121 3.9 18:37:22 10° WNW 18:41:30 67° SW 18:45:35 10° SE
STARLINK-1106 4.0 18:42:22 10° WNW 18:46:28 61° SW 18:50:33 10° SE
H-2A R/B 2.3 18:42:32 10° SSE 18:47:36 52° ENE 18:52:33 10° N
SJ-11-01 4.3 18:45:03 10° SSE 18:49:44 73° ENE 18:54:28 10° N
STARLINK-1112 4.2 18:47:21 10° WNW 18:51:25 56° SW 18:55:27 10° SE
Cosmos 1656 Rocket 4.4 18:49:35 10° N 18:54:48 36° NE 18:59:39 11° ESE
ADEOS Rocket 3.9 18:48:56 10° N 18:55:12 54° WNW 19:00:51 10° SW
SL-16 R/B 3.9 18:50:21 10° WSW 18:55:33 37° WNW 19:00:48 10° N
STARLINK-1128 4.3 18:52:21 10° WNW 18:56:22 51° SW 19:00:23 10° SE
CZ-2C R/B 3.7 18:55:07 10° NE 18:58:59 21° E 19:02:53 10° SE
NOSS 3-3 (A) 3.9 18:54:22 10° SSW 19:00:10 87° ESE 19:06:44 10° NE
NOSS 3-3 (C) 3.9 18:54:28 10° SSW 19:00:16 86° SE 19:06:50 10° NE
Cosmos 2251 Rocket 3.6 18:55:40 10° SSW 19:01:02 89° ESE 19:06:28 10° NNE
Cosmos 1726 2.3 18:57:39 10° SSE 19:01:14 47° E 19:04:51 10° NNE
STARLINK-1113 4.5 18:57:22 10° WNW 19:01:21 46° SW 19:05:19 10° SSE
ARGOS 3.2 18:58:03 10° SSE 19:03:21 62° ENE 19:08:40 10° N
MONITOR-E 3.9 19:02:39 10° SSE 19:05:13 53° ENE 19:07:48 10° N
STARLINK-60 4.0 19:03:03 10° SSW 19:05:53 27° SE 19:07:54 15° E
SJ-6B 3.1 19:02:54 10° SSE 19:06:53 51° ENE 19:10:54 10° N
Cosmos 2184 Rocket 4.1 19:01:10 10° N 19:07:21 56° ENE 19:13:26 10° SSE
ISS -3.0 19:04:14 10° WNW 19:07:29 46° SW 19:10:16 13° SSE
BREEZE M DEB (TANK) 3.7 19:07:09 10° SSE 19:09:24 19° ESE 19:13:18 10° ENE
Meteor 2-10 4.1 19:04:39 10° S 19:10:00 66° E 19:15:35 10° NNE
USA 186 1.7 19:08:31 10° SSE 19:11:54 80° ENE 19:15:09 10° N
Cosmos 1603 3.8 19:12:22 10° SSW 19:17:59 80° WNW 19:23:39 10° NNE
FREGAT/IRIS 2.5 19:16:06 10° S 19:18:47 72° WSW 19:21:31 10° NNW
Cosmos 2058 Rocket 4.0 19:16:34 14° SE 19:19:33 28° E 19:23:24 10° NNE
IRIDIUM 104 4.3 19:15:07 10° N 19:20:22 84° E 19:25:35 10° S
Ariane Rocket 3.3 19:15:31 10° S 19:20:34 68° WSW 19:25:38 10° NNW
Resurs 01 Rocket 2.6 19:21:42 21° ESE 19:23:39 29° ENE 19:27:27 10° N
MOS 1 Rocket 4.1 19:19:11 10° NNE 19:24:13 39° E 19:29:16 10° SSE
MOS 1 4.3 19:19:18 10° SSE 19:24:56 85° WSW 19:30:39 10° NNW
ATLAS 2AS CENTAUR R/B 3.2 19:17:40 10° NNW 19:25:08 53° NE 19:29:59 20° ESE
USA 234 3.7 19:19:56 10° ENE 19:25:59 38° SE 19:31:59 10° SSW
Meteor 1-21 Rocket 4.5 19:20:48 10° NNW 19:26:20 71° W 19:31:49 10° S
Meteor 1-16 Rocket 4.0 19:22:03 10° S 19:27:24 79° E 19:32:57 10° NNE
Cosmos 1190 Rocket 4.5 19:24:14 10° SSE 19:29:04 37° ESE 19:33:55 10° NE
H-2A R/B 4.3 19:24:16 10° WSW 19:29:17 14° SW 19:32:03 10° SSW
IRIDIUM 114 4.4 19:24:17 10° N 19:29:31 80° W 19:34:44 10° S
Cosmos 2154 Rocket 4.2 19:23:22 10° N 19:29:36 53° ENE 19:34:52 14° SSE
Nadezhda 1 Rocket 4.1 19:24:03 10° S 19:30:18 59° E 19:36:33 10° NNE
Cosmos 1140 Rocket 4.1 19:25:53 10° SSE 19:30:27 32° E 19:35:02 10° NE
SL-4 R/B 1.4 19:27:44 10° WSW 19:31:07 89° NNW 19:33:43 17° ENE
Cosmos 1726 Rocket 3.6 19:28:29 10° S 19:32:48 60° E 19:37:11 10° NNE
Cosmos 1340 Rocket 3.4 19:32:48 24° SE 19:34:35 36° E 19:38:19 10° NNE
ATLAS 5 CENTAUR R/B 2.0 19:32:29 10° S 19:36:13 34° ESE 19:40:17 10° NE
SL-24 R/B - RUBIN 2 4.3 19:34:23 10° S 19:39:38 50° ESE 19:45:34 10° NE
Cosmos 1825 Rocket 3.6 19:36:31 10° N 19:40:55 79° W 19:45:02 11° S
Cosmos 1328 3.7 19:36:57 10° N 19:40:57 73° E 19:43:15 24° SSE
Cosmos 1703 3.2 19:42:23 10° N 19:46:22 88° E 19:48:40 24° S
Meteor 2-17 Rocket 4.4 19:40:36 10° N 19:46:45 71° E 19:51:27 18° SSE
SL-8 R/B 4.1 19:42:23 10° WNW 19:47:02 53° SSW 19:49:09 29° SSE
Cosmos 614 Rocket 3.9 19:42:07 10° SSW 19:47:20 77° ESE 19:52:34 10° NNE
Cosmos 1300 4.2 19:50:48 22° NE 19:50:48 22° NE 19:52:41 10° NNE
SPOT 3 Rocket 3.5 19:45:41 15° SSE 19:50:01 87° WSW 19:55:16 10° NNW
Cosmos 1943 Rocket 3.9 19:46:01 10° NW 19:50:49 31° WSW 19:55:37 10° SSW
Abrixas rocket 3.4 19:49:00 10° WNW 19:51:40 29° N 19:52:19 26° NNE
Cosmos 2369 Rocket 3.4 19:47:35 10° NW 19:52:51 40° WSW 19:58:03 10° S
Cosmos 1758 Rocket 4.5 19:49:29 10° NNW 19:53:39 46° W 19:57:46 10° SSW
Cosmos 2074 Rocket 4.4 19:47:43 10° NNW 19:53:57 64° W 20:00:08 10° S
COSMOS 2455 3.5 19:48:48 10° NNW 19:54:27 40° NE 19:56:39 30° E
SL-24 R/B 4.0 19:50:42 10° N 19:54:50 71° WNW 19:58:34 10° SSW
Cosmos 1437 4.5 19:53:19 10° NNW 19:56:00 30° W 19:58:05 14° SSW
CZ-2C R/B 4.0 19:52:01 10° N 19:56:44 71° WNW 20:01:20 10° SSW
Cosmos 921 Rocket 3.5 19:52:59 10° N 19:56:56 39° ENE 19:57:12 38° ENE
Cosmos 676 Rocket 4.4 19:56:21 36° SE 19:57:22 39° ESE 20:02:15 10° NE
Cosmos 407 Rocket 3.3 19:53:33 10° SSW 19:58:42 81° ESE 20:03:51 10° NNE
Cosmos 2228 3.6 19:54:57 10° SSW 19:59:11 58° W 20:03:28 10° N
Cosmos 1953 Rocket 3.8 19:56:50 10° NNW 20:01:17 72° W 20:04:01 23° S
Cosmos 1606 Rocket 4.4 19:57:30 10° SSW 20:01:48 52° WNW 20:06:11 10° N
Cosmos 1908 3.7 19:58:34 10° SSW 20:02:22 60° W 20:06:13 10° N
Cosmos 1818 4.5 20:01:43 10° SW 20:06:59 50° NW 20:12:18 10° NNE
ERS-1 Rocket 4.3 20:07:39 23° ENE 20:07:39 23° ENE 20:11:29 10° NNE
SPOT 1/Viking Rocket 4.3 20:14:31 34° ENE 20:14:44 34° ENE 20:19:25 10° N
Meteor 1-11 4.4 20:10:25 10° NNW 20:16:10 72° W 20:19:34 25° S
MetOp-B 4.2 20:15:08 48° ESE 20:16:21 62° ENE 20:21:38 10° N
APEX 4.2 20:12:46 10° NNW 20:19:20 82° WSW 20:21:10 45° SSE
Cosmos 1461 3.1 20:15:00 10° NNW 20:19:32 66° NE 20:19:51 64° E
Cosmos 1954 Rocket 3.9 20:21:03 55° SSE 20:21:51 63° ESE 20:27:01 10° NNE
H-2A R/B 4.4 20:23:29 10° SW 20:27:17 20° W 20:31:02 10° NW
SPOT 5 4.2 20:36:47 23° NE 20:36:47 23° NE 20:39:05 10° N
CZ-2C R/B 3.4 20:34:34 10° N 20:39:34 49° WNW 20:44:32 10° SW
NOSS 3-4 (A) 4.1 20:36:46 10° NW 20:43:48 66° WSW 20:46:22 43° S
NOSS 3-4 (C) 4.0 20:36:52 10° NW 20:43:54 67° WSW 20:46:27 43° S
Cosmos 2341 Rocket 4.1 20:38:02 10° N 20:44:25 75° W 20:46:40 43° S
Cosmos 2058 4.3 20:41:59 10° N 20:44:18 31° NNE 20:44:18 31° NNE
Terra 3.3 20:55:02 27° NNE 20:55:02 27° NNE 20:57:46 10° N
Resurs 01 Rocket 3.3 20:59:16 26° WSW 21:00:05 28° W 21:03:53 10° NW
Cosmos 2218 Rocket 3.8 20:55:42 10° N 21:01:56 87° W 21:02:26 77° S
Cosmos 1980 Rocket 4.2 20:59:55 10° N 21:03:11 15° NE 21:03:11 15° NE
USA 234 3.5 21:02:44 10° NE 21:09:13 67° NW 21:15:41 10° WSW
SL-4 R/B 4.4 21:08:08 10° WNW 21:09:22 17° NW 21:09:22 17° NW
Cosmos 1656 4.5 21:06:04 10° NNW 21:10:37 42° NNE 21:10:37 42° NNE
Spot 2 Rocket 4.2 21:11:44 49° W 21:11:44 49° W 21:16:40 10° NNW
Cosmos 2181 Rocket 4.4 21:12:14 41° SW 21:14:14 58° W 21:20:22 10° N
ATLAS 2AS CENTAUR R/B 3.7 21:09:09 10° NW 21:15:52 38° WSW 21:17:26 34° SW
ATLAS 5 CENTAUR R/B 3.4 21:17:08 10° WSW 21:20:51 29° NW 21:24:59 10° NNE
Cosmos 2366 rocket 4.4 21:28:02 10° NNW 21:33:57 52° W 21:34:06 52° W
COSMOS 2455 3.9 21:34:50 10° NW 21:39:49 38° W 21:39:49 38° W
ERS-1 Rocket 4.4 21:47:39 35° NW 21:47:39 35° NW 21:50:56 10° NNW
ATLAS CENTAUR R/B 4.4 21:47:16 10° N 21:47:36 11° N 21:47:36 11° N
Cosmos 1697 Rocket 4.1 22:14:03 10° NNW 22:17:11 34° NNW 22:17:11 34° NNW
CZ-4C R/B 3.4 22:16:05 10° NNW 22:22:18 52° NNE 22:22:18 52° NNE
Terra 4.4 22:33:55 17° NW 22:33:55 17° NW 22:35:17 10° NW
SL-16 R/B 4.3 22:29:32 10° N 22:32:21 20° NNE 22:32:21 20° NNE
Cosmos 2322 Rocket 4.3 22:39:27 10° N 22:42:08 20° NNE 22:42:08 20° NNE
Cosmos 1980 Rocket 4.0 22:42:26 10° NNW 22:44:56 27° NNW 22:44:56 27° NNW
Cosmos 2082 Rocket 4.2 23:15:18 24° N 23:15:18 24° N 23:17:36 10° NNE
Cosmos 2344 4.3 23:08:34 10° NW 23:18:29 89° SW 23:18:38 88° S
